This is the latest recevied weather packets stored in our database for station/object EA5CLU-13. If no packets are shown the sender has not sent any weather packets the latest 10 day(s).
| Time | Temp. | Humidity | Pressure | Rain* | Wind** | Luminosity | Snow |
|---|---|---|---|---|---|---|---|
| 1788077080 | 22.78° C | - | 1021.1 hPa | 0 mm | - | - | - |
| 1788076780 | 22.22° C | - | 1021.3 hPa | 0 mm | - | - | - |
| 1788076179 | 21.11° C | - | 1021.2 hPa | 0 mm | - | - | - |
| 1788075879 | 21.11° C | - | 1021.2 hPa | 0 mm | - | - | - |
| 1788075578 | 20.56° C | - | 1021.3 hPa | 0 mm | - | - | - |
| 1788075279 | 20° C | - | 1021.4 hPa | 0 mm | - | - | - |
| 1788074981 | 19.44° C | - | 1021.3 hPa | 0 mm | - | - | - |
| 1788074379 | 18.89° C | - | 1021.3 hPa | 0 mm | - | - | - |
| 1788074081 | 18.33° C | - | 1021.2 hPa | 0 mm | - | - | - |
| 1788073779 | 18.33° C | - | 1021.3 hPa | 0 mm | - | - | - |
| 1788073479 | 18.33° C | - | 1021.4 hPa | 0 mm | - | - | - |
| 1788073181 | 18.33° C | - | 1021.3 hPa | 0 mm | - | - | - |
| 1788072579 | 17.78° C | - | 1021.1 hPa | 0 mm | - | - | - |
| 1788072280 | 17.78° C | - | 1021 hPa | 0 mm | - | - | - |
| 1788071979 | 17.78° C | - | 1021 hPa | 0 mm | - | - | - |
| 1788071378 | 16.67° C | - | 1021.1 hPa | 0 mm | - | - | - |
| 1788070480 | 15.56° C | - | 1021 hPa | 0 mm | - | - | - |
| 1788070180 | 15.56° C | - | 1021.4 hPa | 0 mm | - | - | - |
| 1788069579 | 15° C | - | 1021.2 hPa | 0 mm | - | - | - |
| 1788068979 | 14.44° C | - | 1021.3 hPa | 0 mm | - | - | - |
| 1788068679 | 14.44° C | - | 1021.3 hPa | 0 mm | - | - | - |
| 1788068080 | 14.44° C | - | 1021.2 hPa | 0 mm | - | - | - |
| 1788067780 | 14.44° C | - | 1021.2 hPa | 0 mm | - | - | - |
| 1788067480 | 14.44° C | - | 1021.2 hPa | 0 mm | - | - | - |
| 1788067179 | 15° C | - | 1021.1 hPa | 0 mm | - | - | - |
* Rain latest hour (hover to see other rain measurements)
** Current wind speed in m/s (hover to see current wind gust speed)